| time (UTC) | temp F | wind direction | speed knots | gust knots | rain 1hr in | rain 24hr in | rain mn in | humidity % | barometer mb |
| 20260904232017 | 56 | 166 | 0.9 | 1.7 | 0.00 | 0.00 | 0.00 | 65 | 1020.1 |
| 20260904231116 | 56 | 157 | 1.7 | 3.5 | 0.00 | 0.00 | 0.00 | 67 | 1020.2 |
| 20260904230119 | 56 | 254 | 0.0 | 0.0 | 0.00 | 0.00 | 0.00 | 67 | 1020.1 |
| 20260904225216 | 56 | 225 | 0.0 | 1.7 | 0.00 | 0.00 | 0.00 | 69 | 1020.3 |
| 20260904223319 | 56 | 205 | 0.0 | 1.7 | 0.00 | 0.00 | 0.00 | 70 | 1020.3 |
| 20260904222318 | 56 | 242 | 1.7 | 3.5 | 0.00 | 0.00 | 0.00 | 70 | 1020.3 |
| 20260904221317 | 56 | 113 | 0.0 | 2.6 | 0.00 | 0.00 | 0.00 | 69 | 1020.1 |
| 20260904215417 | 56 | 261 | 0.9 | 3.5 | 0.00 | 0.00 | 0.00 | 71 | 1020.1 |
| 20260904214417 | 56 | 195 | 0.9 | 2.6 | 0.00 | 0.00 | 0.00 | 70 | 1020.1 |
| 20260904213419 | 56 | 247 | 1.7 | 3.5 | 0.00 | 0.00 | 0.00 | 72 | 1020.1 |
| 20260904212417 | 57 | 186 | 1.7 | 4.3 | 0.00 | 0.00 | 0.00 | 71 | 1019.9 |
| 20260904211416 | 56 | 198 | 1.7 | 5.2 | 0.00 | 0.00 | 0.00 | 71 | 1020.1 |
| 20260904210418 | 56 | 228 | 0.9 | 1.7 | 0.00 | 0.00 | 0.00 | 71 | 1020.1 |
| 20260904205517 | 56 | 214 | 0.0 | 1.7 | 0.00 | 0.00 | 0.00 | 72 | 1020.1 |
| 20260904204517 | 56 | 257 | 0.0 | 0.0 | 0.00 | 0.00 | 0.00 | 73 | 1020.0 |
| 20260904203519 | 56 | 247 | 0.9 | 1.7 | 0.00 | 0.00 | 0.00 | 71 | 1019.9 |
| 20260904202517 | 56 | 260 | 0.0 | 1.7 | 0.00 | 0.00 | 0.00 | 72 | 1019.9 |
| 20260904201519 | 56 | 151 | 0.0 | 1.7 | 0.00 | 0.00 | 0.00 | 71 | 1019.8 |
| 20260904200534 | 56 | 240 | 1.7 | 4.3 | 0.00 | 0.00 | 0.00 | 70 | 1019.7 |
| 20260904200417 | 56 | 234 | 1.7 | 3.5 | 0.00 | 0.00 | 0.00 | 70 | 1019.7 |
| 20260904195420 | 56 | 183 | 2.6 | 5.2 | 0.00 | 0.00 | 0.00 | 71 | 1019.7 |
| 20260904193518 | 56 | 180 | 0.0 | 0.0 | 0.00 | 0.00 | 0.00 | 71 | 1019.7 |
| 20260904192517 | 56 | 173 | 2.6 | 4.3 | 0.00 | 0.00 | 0.00 | 70 | 1019.9 |
| 20260904191615 | 56 | 237 | 1.7 | 3.5 | 0.00 | 0.00 | 0.00 | 68 | 1019.8 |
| 20260904190618 | 56 | 175 | 3.5 | 8.7 | 0.00 | 0.00 | 0.00 | 68 | 1019.8 |
| 20260904185632 | 57 | 225 | 1.7 | 3.5 | 0.00 | 0.00 | 0.00 | 68 | 1019.7 |
| 20260904183719 | 56 | 187 | 0.9 | 2.6 | 0.00 | 0.00 | 0.00 | 69 | 1019.7 |
| 20260904182717 | 56 | 181 | 1.7 | 4.3 | 0.00 | 0.00 | 0.00 | 67 | 1019.7 |
| 20260904181717 | 56 | 163 | 0.9 | 1.7 | 0.00 | 0.00 | 0.00 | 67 | 1019.7 |
| 20260904175716 | 56 | 227 | 4.3 | 7.0 | 0.00 | 0.00 | 0.00 | 67 | 1019.7 |
| 20260904173717 | 55 | 159 | 2.6 | 4.3 | 0.00 | 0.00 | 0.00 | 69 | 1019.5 |
| 20260904171716 | 55 | 203 | 0.9 | 3.5 | 0.00 | 0.00 | 0.00 | 69 | 1019.2 |
| 20260904170717 | 55 | 229 | 1.7 | 3.5 | 0.00 | 0.00 | 0.00 | 68 | 1019.2 |
| 20260904165717 | 55 | 199 | 0.9 | 5.2 | 0.00 | 0.00 | 0.00 | 69 | 1019.2 |
| 20260904164719 | 54 | 205 | 0.0 | 0.0 | 0.00 | 0.00 | 0.00 | 69 | 1019.1 |
| 20260904161816 | 54 | 214 | 1.7 | 2.6 | 0.00 | 0.00 | 0.00 | 69 | 1018.8 |
| 20260904155816 | 53 | 150 | 0.9 | 1.7 | 0.00 | 0.00 | 0.00 | 68 | 1018.8 |
| 20260904153919 | 53 | 157 | 0.0 | 0.0 | 0.00 | 0.00 | 0.00 | 69 | 1018.7 |
| 20260904152917 | 53 | 192 | 0.9 | 1.7 | 0.00 | 0.00 | 0.00 | 70 | 1018.9 |
| 20260904151917 | 53 | 182 | 0.0 | 1.7 | 0.00 | 0.00 | 0.00 | 70 | 1018.8 |
| 20260904150917 | 52 | 165 | 1.7 | 3.5 | 0.00 | 0.00 | 0.00 | 70 | 1018.7 |
| 20260904145917 | 52 | 209 | 0.9 | 2.6 | 0.00 | 0.00 | 0.00 | 69 | 1018.7 |
| 20260904144919 | 52 | 179 | 1.7 | 3.5 | 0.00 | 0.00 | 0.00 | 68 | 1018.6 |
| 20260904144016 | 52 | 184 | 0.0 | 1.7 | 0.00 | 0.00 | 0.00 | 68 | 1018.6 |
| 20260904142016 | 52 | 178 | 3.5 | 6.1 | 0.00 | 0.00 | 0.00 | 68 | 1018.3 |
| 20260904141017 | 52 | 177 | 2.6 | 4.3 | 0.00 | 0.00 | 0.00 | 68 | 1018.4 |
| 20260904140019 | 52 | 212 | 0.9 | 1.7 | 0.00 | 0.00 | 0.00 | 67 | 1018.3 |
| 20260904134018 | 52 | 181 | 0.9 | 2.6 | 0.00 | 0.00 | 0.00 | 67 | 1018.3 |
| 20260904133017 | 52 | 170 | 1.7 | 2.6 | 0.00 | 0.00 | 0.00 | 67 | 1018.0 |
| 20260904132018 | 52 | 157 | 0.9 | 1.7 | 0.00 | 0.00 | 0.00 | 67 | 1018.0 |
| 20260904130116 | 52 | 177 | 3.5 | 5.2 | 0.00 | 0.00 | 0.00 | 67 | 1017.9 |
| 20260904124117 | 52 | 180 | 0.0 | 0.9 | 0.00 | 0.00 | 0.00 | 66 | 1017.8 |
| 20260904123116 | 52 | 167 | 1.7 | 1.7 | 0.00 | 0.00 | 0.00 | 68 | 1017.8 |
| 20260904122116 | 52 | 168 | 1.7 | 2.6 | 0.00 | 0.00 | 0.00 | 68 | 1017.8 |
| 20260904121120 | 52 | 180 | 2.6 | 3.5 | 0.00 | 0.00 | 0.00 | 67 | 1017.8 |
| 20260904120217 | 52 | 180 | 1.7 | 2.6 | 0.00 | 0.00 | 0.00 | 68 | 1017.8 |
| 20260904115219 | 52 | 180 | 0.0 | 2.6 | 0.00 | 0.00 | 0.00 | 67 | 1017.6 |
| 20260904114316 | 52 | 180 | 0.0 | 0.9 | 0.00 | 0.00 | 0.00 | 67 | 1017.8 |
| 20260904112318 | 52 | 180 | 0.0 | 0.9 | 0.00 | 0.00 | 0.00 | 65 | 1017.8 |
| 20260904111335 | 52 | 162 | 0.0 | 0.0 | 0.00 | 0.00 | 0.00 | 65 | 1017.9 |
| 20260904110317 | 52 | 163 | 0.0 | 0.9 | 0.00 | 0.00 | 0.00 | 64 | 1017.8 |
| 20260904105317 | 53 | 172 | 0.0 | 0.0 | 0.00 | 0.00 | 0.00 | 64 | 1017.7 |
| 20260904104317 | 53 | 180 | 0.0 | 0.0 | 0.00 | 0.00 | 0.00 | 63 | 1017.6 |
| 20260904103318 | 53 | 180 | 0.0 | 0.0 | 0.00 | 0.00 | 0.00 | 64 | 1017.6 |
| 20260904102415 | 53 | 180 | 0.0 | 0.0 | 0.00 | 0.00 | 0.00 | 63 | 1017.6 |
| 20260904101433 | 53 | 200 | 0.0 | 1.7 | 0.00 | 0.00 | 0.00 | 63 | 1017.4 |
| 20260904100517 | 53 | 225 | 0.0 | 0.9 | 0.00 | 0.00 | 0.00 | 64 | 1017.5 |
| 20260904095516 | 53 | 170 | 0.9 | 1.7 | 0.00 | 0.00 | 0.00 | 63 | 1017.4 |
| 20260904094518 | 53 | 225 | 0.0 | 1.7 | 0.00 | 0.00 | 0.00 | 64 | 1017.4 |
| 20260904092616 | 54 | 180 | 0.0 | 0.0 | 0.00 | 0.00 | 0.00 | 65 | 1017.5 |
| 20260904091617 | 54 | 201 | 0.0 | 0.0 | 0.00 | 0.00 | 0.00 | 64 | 1017.6 |
| 20260904090616 | 54 | 180 | 0.0 | 0.0 | 0.00 | 0.00 | 0.00 | 63 | 1017.6 |
| 20260904085616 | 54 | 173 | 1.7 | 2.6 | 0.00 | 0.00 | 0.00 | 64 | 1017.6 |
| 20260904084619 | 54 | 184 | 1.7 | 3.5 | 0.00 | 0.00 | 0.00 | 62 | 1017.6 |
| 20260904083616 | 54 | 169 | 1.7 | 2.6 | 0.00 | 0.00 | 0.00 | 63 | 1017.6 |
| 20260904081617 | 54 | 180 | 0.9 | 3.5 | 0.00 | 0.00 | 0.00 | 62 | 1017.6 |
| 20260904080617 | 54 | 173 | 2.6 | 4.3 | 0.00 | 0.00 | 0.00 | 64 | 1017.9 |
| 20260904075616 | 54 | 179 | 1.7 | 3.5 | 0.00 | 0.00 | 0.00 | 63 | 1017.7 |
| 20260904074617 | 54 | 172 | 2.6 | 4.3 | 0.00 | 0.00 | 0.00 | 64 | 1017.9 |
| 20260904073617 | 54 | 180 | 1.7 | 1.7 | 0.00 | 0.00 | 0.00 | 65 | 1017.9 |
| 20260904072619 | 54 | 167 | 3.5 | 4.3 | 0.00 | 0.00 | 0.00 | 64 | 1017.9 |
| 20260904070618 | 54 | 180 | 0.0 | 1.7 | 0.00 | 0.00 | 0.00 | 62 | 1018.2 |
| 20260904065715 | 54 | 180 | 0.0 | 0.0 | 0.00 | 0.00 | 0.00 | 62 | 1018.2 |
| 20260904064813 | 54 | 180 | 0.0 | 0.0 | 0.00 | 0.00 | 0.00 | 60 | 1018.2 |
| 20260904063816 | 54 | 202 | 0.0 | 0.0 | 0.00 | 0.00 | 0.00 | 60 | 1018.3 |
| 20260904062815 | 54 | 202 | 0.0 | 0.0 | 0.00 | 0.00 | 0.00 | 59 | 1018.4 |
| 20260904061914 | 54 | 202 | 0.0 | 0.0 | 0.00 | 0.00 | 0.00 | 59 | 1018.4 |
| 20260904055914 | 54 | 225 | 0.0 | 0.0 | 0.00 | 0.00 | 0.00 | 60 | 1018.5 |
| 20260904055013 | 54 | 225 | 0.0 | 0.0 | 0.00 | 0.00 | 0.00 | 60 | 1018.6 |
| 20260904054014 | 54 | 225 | 0.0 | 0.0 | 0.00 | 0.00 | 0.00 | 59 | 1018.6 |
| 20260904053113 | 54 | 225 | 0.0 | 0.0 | 0.00 | 0.00 | 0.00 | 59 | 1018.5 |
| 20260904052113 | 54 | 225 | 0.0 | 0.0 | 0.00 | 0.00 | 0.00 | 59 | 1018.7 |
| 20260904051114 | 54 | 180 | 0.0 | 0.0 | 0.00 | 0.00 | 0.00 | 60 | 1018.8 |
| 20260904050213 | 53 | 180 | 0.0 | 0.0 | 0.00 | 0.00 | 0.00 | 60 | 1018.8 |
| 20260904045215 | 53 | 180 | 0.0 | 0.0 | 0.00 | 0.00 | 0.00 | 59 | 1018.8 |
| 20260904044213 | 53 | 180 | 0.0 | 0.0 | 0.00 | 0.00 | 0.00 | 61 | 1018.7 |
| 20260904042214 | 53 | 157 | 0.0 | 0.0 | 0.00 | 0.00 | 0.00 | 61 | 1018.7 |
| 20260904041213 | 53 | 157 | 0.0 | 0.0 | 0.00 | 0.00 | 0.00 | 61 | 1018.6 |
| 20260904040213 | 53 | 157 | 0.0 | 0.0 | 0.00 | 0.00 | 0.00 | 60 | 1018.5 |
| 20260904035214 | 54 | 157 | 0.0 | 0.0 | 0.00 | 0.00 | 0.00 | 59 | 1018.5 |
| 20260904034213 | 54 | 157 | 0.0 | 0.0 | 0.00 | 0.00 | 0.00 | 60 | 1018.5 |
| 20260904032214 | 54 | 157 | 0.0 | 1.7 | 0.00 | 0.00 | 0.00 | 60 | 1018.4 |
| 20260904030314 | 55 | 157 | 0.0 | 0.0 | 0.00 | 0.00 | 0.00 | 59 | 1018.5 |
| 20260904025313 | 55 | 157 | 0.0 | 0.0 | 0.00 | 0.00 | 0.00 | 60 | 1018.4 |
| 20260904024314 | 55 | 157 | 0.0 | 0.0 | 0.00 | 0.00 | 0.00 | 60 | 1018.5 |
| 20260904023314 | 56 | 158 | 0.9 | 2.6 | 0.00 | 0.00 | 0.00 | 60 | 1018.3 |
| 20260904022412 | 56 | 157 | 0.0 | 1.7 | 0.00 | 0.00 | 0.00 | 58 | 1018.5 |
| 20260904021430 | 56 | 194 | 0.0 | 2.6 | 0.00 | 0.00 | 0.00 | 58 | 1018.6 |
| 20260904015515 | 57 | 157 | 0.0 | 0.9 | 0.00 | 0.00 | 0.00 | 60 | 1018.7 |
| 20260904014513 | 57 | 217 | 0.9 | 2.6 | 0.00 | 0.00 | 0.00 | 59 | 1018.6 |
| 20260904013515 | 58 | 165 | 0.0 | 1.7 | 0.00 | 0.00 | 0.00 | 59 | 1018.6 |
| 20260904011514 | 58 | 174 | 0.0 | 2.6 | 0.00 | 0.00 | 0.00 | 57 | 1018.7 |
| 20260904010514 | 58 | 169 | 0.0 | 0.9 | 0.00 | 0.00 | 0.00 | 58 | 1018.8 |
| 20260904005529 | 58 | 225 | 0.0 | 0.9 | 0.00 | 0.00 | 0.00 | 59 | 1018.8 |
| 20260904004513 | 59 | 211 | 0.0 | 0.0 | 0.00 | 0.00 | 0.00 | 58 | 1018.8 |
| 20260904003528 | 59 | 165 | 1.7 | 3.5 | 0.00 | 0.00 | 0.00 | 57 | 1018.9 |
| 20260904002613 | 60 | 214 | 2.6 | 4.3 | 0.00 | 0.00 | 0.00 | 55 | 1019.0 |
| 20260904001617 | 60 | 161 | 1.7 | 3.5 | 0.00 | 0.00 | 0.00 | 54 | 1018.9 |
| 20260904000614 | 60 | 180 | 0.0 | 0.9 | 0.00 | 0.00 | 0.00 | 54 | 1019.0 |
| 20260903235613 | 61 | 157 | 0.9 | 2.6 | 0.00 | 0.00 | 0.00 | 55 | 1019.1 |
| 20260903233716 | 62 | 224 | 0.0 | 0.0 | 0.00 | 0.00 | 0.00 | 53 | 1019.3 |
| 20260903232813 | 62 | 176 | 2.6 | 5.2 | 0.00 | 0.00 | 0.00 | 53 | 1019.3 |